Probability
0 0 0 0 0 0 0 1 2 2 3 3 2 3 3 1 0 0 0 0 0 0 0 0 0 0 0 0 0 0 0 0 0 0 0 0 0 0 0 0 0 0 0
0 0 0 0 0 0 0 0 1 1 2 3 3 3 3 2 1 0 0 0 0 0 0 0 0 0 0 0 0 0 0 0 0 0 0 0 0 0 0 0 0 0 0
0 0 0 0 0 0 0 0 0 0 1 2 2 2 2 2 1 0 0 0 0 0 0 0 0 0 0 0 0 0 0 0 0 0 0 0 0 0 0 0 0 0 0
0 0 0 0 0 0 0 0 0 0 0 1 1 1 1 1 0 0 0 0 0 0 0 0 0 0 0 0 0 0 0 0 0 0 0 0 0 0 0 0 0 0 0
0 0 0 0 0 0 0 0 0 0 0 0 0 0 0 0 0 0 0 0 0 0 0 0 0 0 0 0 0 0 0 0 0 0 0 0 0 0 0 0 0 0 0
0 0 0 0 0 0 0 0 0 0 0 0 0 0 0 0 0 0 0 0 0 0 0 0 0 0 0 0 0 0 0 0 0 0 0 0 0 0 0 0 0 0 0
0 0 0 0 0 0 0 0 0 0 0 0 0 0 0 0 0 0 0 0 0 0 0 0 0 0 0 0 0 0 0 0 0 0 0 0 0 0 0 0 0 0 0
0 0 0 0 0 0 0 0 0 0 0 0 0 0 0 0 0 0 0 0 0 0 0 0 0 0 0 0 0 0 0 0 0 0 0 0 0 0 0 0 0 0 0
0 0 0 0 0 0 0 0 0 0 0 0 0 0 0 0 0 0 0 0 0 0 0 0 0 0 0 0 0 0 0 0 0 0 0 0 0 0 0 0 0 0 0
0 0 0 0 0 0 0 0 0 0 0 0 0 0 0 0 0 0 0 0 0 0 0 0 0 0 0 0 0 0 0 0 0 0 0 0 0 0 0 0 0 0 0
0 0 0 0 0 0 0 0 0 0 0 0 0 0 0 0 0 0 0 0 0 0 0 0 0 0 0 0 0 0 0 0 0 0 0 0 0 0 0 0 0 0 0
0 0 0 0 0 0 0 0 0 0 0 0 0 0 0 0 0 0 0 0 0 0 0 0 0 0 0 0 0 0 0 0 0 0 0 0 0 0 0 0 0 0 0
0 0 0 0 0 0 0 0 0 0 0 0 0 0 0 0 0 0 0 0 0 0 0 0 0 0 0 0 0 0 0 0 0 0 0 0 0 0 0 0 0 0 0
0 0 0 0 0 0 0 0 0 0 0 0 0 0 0 0 0 0 0 0 0 0 0 0 0 0 0 0 0 0 0 0 0 0 0 0 0 0 0 0 0 0 0
0 0 0 0 0 0 0 0 0 0 0 0 0 0 0 0 0 0 0 0 0 0 0 0 0 0 0 0 0 0 0 0 0 0 0 0 0 0 0 0 0 0 0
0 0 0 0 0 0 0 0 0 0 0 0 0 0 0 0 0 0 0 0 0 0 0 0 0 0 0 0 0 0 0 0 0 0 0 0 0 0 0 0 0 0 0
0 0 0 0 0 0 0 0 0 0 0 0 0 0 0 0 0 0 0 0 0 0 0 0 0 0 0 0 0 0 0 0 0 0 0 0 0 0 0 0 0 0 0
0 0 0 0 0 0 0 0 0 0 0 0 0 0 0 0 0 0 0 0 0 0 0 0 0 0 0 0 0 0 0 0 0 0 0 0 0 0 0 0 0 0 0
0 0 0 0 0 0 0 0 0 0 0 0 0 0 0 0 0 0 0 0 0 0 0 0 0 0 0 0 0 0 0 0 0 0 0 0 0 0 0 0 0 0 0
0 0 0 0 0 0 0 0 0 0 0 0 0 0 0 0 0 0 0 0 0 0 0 0 0 0 0 0 0 0 0 0 0 0 0 0 0 0 0 0 0 0 0
0 0 0 0 0 0 0 0 0 0 0 0 0 0 0 0 0 0 0 0 0 0 0 0 0 0 0 0 0 0 0 0 0 0 0 0 0 0 0 0 0 0 0
0 0 0 0 0 0 0 0 0 0 0 0 0 0 0 0 0 0 0 0 0 0 0 0 0 0 0 0 0 0 0 0 0 0 0 0 0 0 0 0 0 0 0
0 0 0 0 0 0 0 0 0 0 0 0 0 0 0 0 0 0 0 0 0 0 0 0 0 0 0 0 0 0 0 0 0 0 0 0 0 0 0 0 0 0 0
0 0 0 0 0 0 0 0 0 0 0 0 0 0 0 0 0 0 0 0 0 0 0 0 0 0 0 0 0 0 0 0 0 0 0 0 0 0 0 0 0 0 0
0 0 0 0 0 0 0 0 0 0 0 0 0 0 0 0 0 0 0 0 0 0 0 0 0 0 0 0 0 0 0 0 0 0 0 0 0 0 0 0 0 0 0
0 0 0 0 0 0 0 0 0 0 0 0 0 0 0 0 0 0 0 0 0 0 0 0 0 0 0 0 0 0 0 0 0 0 0 0 0 0 0 0 0 0 0
Wind_Speed
1 1 1 1 1 2 2 3 3 2 3 3 3 3 3 3 3 3 4 4 4 3 3 3 4 3 2 2 2 2 2 2 5 4 2 2 3 4 4 4 4 4 5
0 1 1 1 2 2 2 2 2 3 3 3 3 3 3 3 3 4 3 3 4 4 4 4 4 3 3 2 2 3 3 3 4 5 4 3 4 4 4 5 4 4 5
1 1 1 1 1 1 1 2 2 2 2 2 2 3 3 3 3 3 4 3 3 3 4 4 4 4 4 3 3 3 3 3 3 4 4 3 3 2 4 4 5 4 5
1 1 1 1 1 1 1 1 1 2 2 2 2 2 2 2 3 3 3 3 3 4 3 4 4 4 5 4 4 4 4 4 4 4 4 3 3 3 2 3 5 4 5
1 1 1 0 1 1 1 1 1 1 1 1 1 1 1 2 2 2 3 3 3 3 3 3 4 4 6 5 4 4 4 4 4 4 4 3 3 2 3 3 5 5 5
1 1 0 1 1 1 1 1 1 1 1 1 1 1 2 1 2 3 3 3 3 4 4 3 3 4 5 6 7 7 6 5 5 5 4 5 5 4 3 3 3 4 5
1 1 1 0 0 0 1 1 1 1 0 0 0 1 1 2 3 3 3 3 3 3 3 3 3 3 4 4 5 7 7 8 8 6 6 6 5 4 3 4 4 4 5
1 1 0 0 0 0 1 1 0 0 0 1 1 1 1 2 2 3 3 3 3 3 3 3 4 3 3 4 4 4 5 6 7 6 6 6 5 4 4 4 4 4 4
1 1 1 1 1 1 1 1 0 0 1 1 1 1 2 2 2 3 3 2 2 3 3 3 4 4 5 6 4 4 5 5 6 8 8 8 7 6 4 1 1 2 4
2 1 1 1 2 2 2 1 0 1 1 1 1 1 2 2 3 3 3 2 2 3 3 3 4 5 6 6 4 4 6 6 4 4 5 6 5 4 5 4 3 3 3
1 1 1 1 1 2 1 1 1 0 0 1 1 2 2 2 3 4 4 2 2 3 3 3 3 6 7 7 6 5 7 5 3 3 3 3 2 2 2 3 3 4 4
1 1 1 0 0 1 1 1 1 1 1 1 2 2 2 2 3 4 5 5 4 3 4 3 4 6 7 7 6 6 7 4 2 2 2 3 3 3 3 3 3 3 4
1 1 1 0 0 0 1 1 1 1 1 2 2 2 3 2 3 5 6 6 6 3 3 5 6 7 6 5 6 6 4 2 2 2 3 3 3 3 2 2 2 2 3
2 1 1 1 0 0 1 1 2 2 2 2 2 3 3 3 2 2 3 3 4 4 3 3 5 5 4 4 3 3 2 2 2 3 3 3 2 2 2 2 2 2 2
2 1 1 1 1 1 1 2 3 3 3 3 3 3 3 4 4 6 4 3 2 3 2 1 1 2 2 2 2 2 1 1 1 2 2 2 2 2 2 1 1 1 2
2 2 1 1 1 1 1 2 3 4 5 6 5 4 4 5 6 6 7 6 5 4 1 2 2 2 2 2 2 2 2 2 2 2 2 2 3 3 3 2 1 2 2
3 2 2 2 2 2 2 2 3 3 4 5 6 6 6 6 6 6 6 6 4 2 1 2 2 3 3 3 3 3 3 2 2 2 2 2 2 2 2 2 2 2 2
2 2 2 2 2 2 3 3 3 3 3 3 5 6 7 7 7 6 5 3 2 2 2 3 3 3 3 3 3 3 3 3 2 2 2 2 2 2 2 2 2 2 2
2 2 2 2 2 2 3 3 3 3 3 3 3 4 5 6 6 5 3 1 3 3 3 3 3 3 3 3 3 3 3 3 3 3 3 2 2 2 2 2 2 2 2
2 2 2 2 2 2 3 3 3 3 3 3 4 3 2 2 2 3 2 3 3 4 4 4 4 4 4 3 3 3 3 3 3 3 3 3 2 2 3 3 3 2 2
1 2 2 2 3 3 3 3 3 3 4 4 4 4 5 3 3 4 3 3 4 4 4 4 4 4 4 3 3 4 4 4 3 3 3 3 2 2 2 3 3 2 2
2 2 2 2 2 3 3 3 3 3 4 4 4 4 5 3 3 4 4 4 4 4 4 4 4 4 4 4 4 4 4 4 4 4 3 3 3 3 2 2 2 2 2
1 2 2 2 2 3 3 3 3 3 3 3 3 3 3 3 4 4 4 4 4 4 3 4 4 4 4 4 4 4 5 5 5 5 4 4 3 3 3 3 3 3 3
1 2 2 2 2 3 3 3 3 3 3 3 3 3 3 3 4 4 4 4 4 4 4 4 5 6 7 5 4 4 5 6 5 5 6 5 4 3 3 3 3 4 3
2 2 2 3 3 3 3 3 3 3 3 3 3 3 3 3 4 4 4 4 4 5 5 5 4 5 7 7 7 6 8 9 7 5 4 4 5 5 4 4 4 3 3
2 2 2 2 3 3 3 3 3 3 3 3 3 3 4 4 4 4 4 4 4 4 5 5 6 7 7 7 8 9 10 9 8 7 5 4 5 5 5 4 5 4 4
Wind_Direction
87 114 136 151 150 149 162 175 175 172 179 185 188 189 194 200 197 198 207 199 203 211 209 210 223 219 222 229 224 223 230 227 251 273 270 282 275 288 302 300 296 291 294
79 93 122 125 124 141 162 171 166 170 178 182 182 186 194 199 197 195 203 208 208 215 221 219 227 222 226 232 231 232 234 233 243 267 278 278 275 283 295 297 303 300 296
75 85 80 81 110 150 166 166 163 165 166 170 178 189 196 198 198 200 200 206 211 220 225 226 231 222 231 233 235 239 240 243 243 255 270 276 280 294 305 303 299 294 299
102 110 109 117 120 103 103 133 157 160 166 178 189 196 197 197 201 201 204 209 214 223 223 229 235 228 232 233 236 241 244 244 247 255 265 271 270 289 295 292 300 298 299
123 131 158 98 85 92 91 83 83 116 156 169 168 195 201 204 209 206 207 212 220 230 233 234 240 243 245 242 243 242 240 244 247 254 261 268 267 284 278 279 288 303 295
133 139 55 76 93 110 112 99 89 79 81 130 169 195 212 230 235 219 214 216 222 229 239 245 248 245 252 259 263 260 251 247 250 246 252 260 264 268 273 274 284 304 294
144 125 75 67 114 134 120 115 124 123 99 83 193 212 236 259 250 241 234 226 227 233 238 244 255 256 252 257 266 270 265 260 255 248 252 255 261 255 256 264 266 270 272
150 140 135 152 184 139 138 162 182 162 200 241 267 271 276 277 264 259 254 232 236 240 242 242 249 256 258 266 262 262 266 264 261 255 249 253 254 248 235 246 257 274 281
184 210 220 200 192 185 197 216 221 217 254 262 274 278 278 286 290 282 264 250 249 256 257 253 251 254 264 268 262 265 273 276 275 272 273 275 274 267 252 243 258 275 281
232 238 233 208 198 199 210 218 249 230 247 276 285 286 278 280 285 288 275 256 263 268 264 257 253 258 269 268 253 251 265 274 279 285 283 285 276 264 251 231 228 242 265
235 231 223 215 215 207 200 207 183 210 284 286 289 292 283 276 276 277 281 272 266 271 267 265 262 267 272 273 269 256 267 276 265 269 278 280 277 266 260 257 246 235 240
177 185 200 223 217 156 160 175 174 180 217 262 279 289 287 282 278 284 287 285 285 263 264 269 269 273 276 280 278 282 286 286 266 262 271 270 271 272 272 270 267 268 263
153 194 198 152 136 162 181 189 201 217 225 250 259 271 282 285 284 287 289 291 290 278 272 280 285 284 284 281 282 286 284 271 262 265 269 268 265 267 271 281 292 297 300
174 200 190 163 180 217 220 208 209 217 225 238 248 261 274 278 277 283 280 282 288 286 287 286 288 291 291 296 300 296 281 260 256 263 273 281 285 274 262 256 268 297 305
186 196 202 201 212 237 242 234 235 233 230 234 239 243 251 262 269 280 281 270 264 265 288 288 290 300 301 302 306 299 291 289 284 285 275 279 282 277 271 264 248 254 264
192 202 207 211 224 235 247 274 262 253 257 260 263 265 264 272 287 281 281 286 291 294 284 264 268 269 271 276 284 292 287 279 278 274 266 269 273 273 276 272 255 246 261
206 214 212 215 218 230 239 244 272 280 264 266 271 272 272 282 285 284 287 289 287 295 244 252 258 261 266 269 267 269 276 281 274 266 264 266 270 275 275 269 259 261 267
217 221 217 223 225 231 240 241 238 247 274 279 281 280 286 288 286 288 294 296 277 263 244 248 253 256 260 262 263 265 270 277 273 270 266 262 260 264 269 271 263 253 259
222 230 226 229 234 238 244 243 238 239 250 266 282 288 290 290 287 287 288 244 245 257 258 255 252 253 256 257 261 263 263 262 262 263 262 256 252 254 266 270 267 264 260
238 246 241 231 236 238 239 237 237 240 247 253 259 266 275 275 271 273 255 243 244 251 252 251 253 251 251 250 252 256 260 259 257 255 256 254 246 243 253 259 258 251 251
243 254 251 245 241 238 239 239 239 240 244 251 255 258 256 242 250 256 256 250 247 250 253 251 249 250 248 246 245 246 249 255 252 252 250 248 241 240 244 247 255 253 243
232 242 243 241 246 248 247 242 240 242 246 254 265 269 265 252 248 252 255 257 255 251 248 250 251 248 244 241 239 242 247 252 252 254 251 247 242 237 234 234 238 244 237
227 241 252 253 249 254 255 247 244 245 247 251 258 262 255 248 250 251 255 258 258 257 252 246 251 256 251 246 239 235 240 246 245 244 241 243 240 233 226 228 227 230 233
234 239 247 251 252 253 251 252 251 247 248 253 256 255 254 253 255 259 259 259 259 258 253 249 249 254 257 256 252 248 247 249 247 242 233 232 236 233 226 227 230 226 229
236 243 249 248 250 254 257 260 258 251 250 253 255 258 258 257 259 261 259 258 260 261 261 258 255 256 257 258 258 257 258 261 257 240 226 223 227 226 222 224 224 222 224
248 249 254 253 251 251 254 260 262 260 259 262 259 258 259 260 261 263 264 263 264 266 267 264 261 262 264 263 261 262 263 262 250 235 224 219 220 222 216 220 220 221 220